CZ-6A DEB, 61320

Orbit data source: Space-Track

CZ-6A DEB, 61320 is space debris in LEO originally from a launch on Tue, 06 Aug 2024 UTC launched from the Taiyaun Space Center, China (TSC). Debris objects in space refer to the collection of defunct objects orbiting the Earth. Examples of debris include non-operational satellites, rocket bodies, and fragments generated from explosions, collisions, or faulty payload assembly.

Loading next visibility...
Identifier
61320, 2024-140UH
Orbit
LEO
Country
Flag of CNCN / PRC
Related business
Manufacturer
SAST
Mission
Spacecraft
Bus & Motor
Unknown
Mass
Unknown
Launch date (UTC)
2024-08-06 (2 years ago)
Launch vehicle
Unknown
Launch site
Taiyaun Space Center, China (TSC)
Object type
Payload
Rocket body
Debris
Shape & HBR
Unknown shape, 0.1 m
Radar Cross Section
Medium (>0.1 m² and <1 m²)

Expand to show TLE details & history
Last TLE update: 17 hours ago

TLE from 17 hours ago
0 CZ-6A DEB
1 61320U 24140UH  26171.24842522  .00000321  00000-0  12794-3 0  9991
2 61320  88.9993 273.3999 0017285 142.2862 217.9547 14.26074327 94004
Epoch: 2026-06-20T05:57Z
TLE epoch observation values (Epoch: 2026-06-20T05:57:43.939Z)
Latitude
0.00003°
Longitude
-84.49895°
Altitude
817.745 km
Speed
7.439 km/s
True Right ascension
18h 13m 35s
True Declination
0° 00' 00"
Sunlit
Object was in full shadow at epoch
Visualization orbit readout
Latitude
Unknown
Longitude
Unknown
Altitude
Unknown
Speed
Unknown
Apparent Right ascension
Unknown
Apparent Declination
Unknown
Sunlit
N/A
Visualization observer readout
Local Sidereal Time
10:18:05
Azimuth
Unknown
Elevation
Unknown
Doppler factor
Unknown
Orbital elements
Apogee altitude
814.236 km
Perigee altitude
789.415 km
Semi-major axis
7,179.962 km
Eccentricity
0.00173
Inclination
88.9993°
RAAN
273.3999°
Arg. of periapsis
142.2862°
True anomaly
217.83309°
Mean anomaly
217.9547°
Eccentric anomaly
217.89387°
Mean motion
3.56747 °/min
Orbital period
100.91 mins
BSTAR
0.00012794
Loading maneuver chart data...
Computing Atmospheric mass density...
Loading historical data...
Loading historical data...
Loading historical data...
Loading historical data...
Loading historical data...
Loading historical data...
Loading historical data...

Documentation

Showing up to 5 results
|